Погода в Балтаси

Россия / Республика Татарстан     56°20′46″N   50°12′24″E
темп.,
°C
ветер,
м/с
пор.,
м/с
влажн.,
%
обл.,
%
осадки,
мм/ч
давл.,
гПа
погр.,
м
16 апреля, пт
пт1600:00+9ссв7119899 0.0 1020310
03:00+9св61090100 0.0 1022528
06:00+7св7118898 0.0 1023480
09:00+9всв79728 0.0 1024607
12:00+11св77598 0.0 1025867
15:00+12св67515 0.0 1025946
18:00+10св59575 0.0 1026335
21:00+6св511635 0.0 1027297
17 апреля, сб
сб1700:00+4св511655 0.0 1027251
03:00+2св410700 0.0 1028207
06:00+2св410680 0.0 1028258
09:00+7св57470 0.0 1028583
12:00+10св66370 0.0 10271096
15:00+11св55380 0.0 10261255
18:00+9св36530 0.0 1026121
21:00+5св34660 0.0 102756
18 апреля, вс
вс1800:00+4св36730 0.0 102683
03:00+2св33770 0.0 102634
06:00+3св35765 0.0 1027123
09:00+8св455749 0.0 1026601
12:00+11св5646100 0.0 10251440
15:00+11св6646100 0.0 10261674
18:00+7всв81065100 0.0 1027835
21:00+4всв61162100 0.0 1029624
19 апреля, пн
пн1900:00+2всв51154100 0.0 1030444
03:00+1всв6116488 0.0 1031412
06:00+1в71359100 0.0 1032573
09:00+4в8113986 0.0 10331057
12:00+6в8103297 0.0 10331447
15:00+7в8103094 0.0 10321592
18:00+5в611391 0.0 1033672
21:00+2в513490 0.0 1034375
20 апреля, вт
вт2000:000в614530 0.0 1034372
03:00−1в512540 0.0 1034289
06:000вюв512560 0.0 1035331
09:00+6вюв810370 0.0 1034986
12:00+8вюв810310 0.0 10331212
15:00+9юв8102914 0.0 10311314
18:00+7вюв611396 0.0 1031406
21:00+4вюв61548100 0.0 1031362